When you browse on this site, cookies collect data to enhance your experience and personalize the content and advertising you see.
Visit our Privacy Policy to learn more. By continuing to use the site, you agree to this use of cookies and data.
  • In United Kingdom
  • List of Countries
  • For 7 days
  • Water Temperature
  • Weather Map
  • Weather Widgets
  • user-avatar
    Login

    Hourly Weather Cheltenham

    Today, 1 June, Monday

    Time Temperature Precipitation Wind Pressure Humidity
    00:00 +9°C° 0 mm 3 mps 756 mmHg 88%
    01:00 +8°C° 0 mm 3 mps 756 mmHg 89%
    02:00 +7°C° 0 mm 3 mps 755 mmHg 91%
    03:00 +7°C° 0 mm 3 mps 755 mmHg 92%
    04:00 +8°C° 0 mm 3 mps 755 mmHg 91%
    05:00 +9°C° 0 mm 3 mps 756 mmHg 90%
    06:00 +10°C° 0 mm 3 mps 756 mmHg 88%
    07:00 +12°C° 0 mm 4 mps 756 mmHg 84%
    08:00 +14°C° 0 mm 4 mps 756 mmHg 80%
    09:00 +17°C° 0 mm 4 mps 756 mmHg 76%
    10:00 +18°C° 0 mm 4 mps 756 mmHg 72%
    11:00 +19°C° 0 mm 4 mps 756 mmHg 68%
    12:00 +21°C° 0 mm 3 mps 755 mmHg 60%
    13:00 +21°C° 0 mm 3 mps 755 mmHg 62%
    14:00 +21°C° 0 mm 3 mps 755 mmHg 63%
    15:00 +21°C° 0 mm 3 mps 755 mmHg 64%
    16:00 +21°C° 0 mm 3 mps 755 mmHg 69%
    17:00 +20°C° 0 mm 3 mps 755 mmHg 73%
    18:00 +20°C° 0 mm 3 mps 755 mmHg 78%
    19:00 +18°C° 0 mm 3 mps 755 mmHg 83%
    20:00 +16°C° 0 mm 3 mps 755 mmHg 88%
    21:00 +14°C° 0 mm 3 mps 755 mmHg 93%
    22:00 +14°C° 0 mm 2 mps 755 mmHg 93%
    23:00 +13°C° 0 mm 2 mps 755 mmHg 93%

    Tomorrow, 2 June, Tuesday

    Time Temperature Precipitation Wind Pressure Humidity
    00:00 +12°C° 0 mm 2 mps 755 mmHg 94%
    01:00 +10°C° 0 mm 2 mps 755 mmHg 93%
    02:00 +9°C° 0 mm 2 mps 755 mmHg 93%
    03:00 +9°C° 0 mm 2 mps 755 mmHg 93%
    04:00 +9°C° 0 mm 2 mps 755 mmHg 91%
    05:00 +10°C° 0 mm 2 mps 755 mmHg 89%
    06:00 +12°C° 0 mm 2 mps 754 mmHg 87%
    07:00 +13°C° 0 mm 2 mps 754 mmHg 80%
    08:00 +15°C° 0 mm 2 mps 754 mmHg 73%
    09:00 +17°C° 0 mm 2 mps 754 mmHg 67%
    10:00 +18°C° 0 mm 2 mps 754 mmHg 64%
    11:00 +19°C° 0 mm 2 mps 754 mmHg 62%
    12:00 +20°C° 0 mm 2 mps 753 mmHg 60%
    13:00 +20°C° 0 mm 2 mps 753 mmHg 59%
    14:00 +21°C° 0 mm 2 mps 752 mmHg 59%
    15:00 +21°C° 0 mm 2 mps 752 mmHg 58%
    16:00 +21°C° 0 mm 2 mps 751 mmHg 63%
    17:00 +21°C° 0 mm 2 mps 751 mmHg 68%
    18:00 +21°C° 0 mm 1 mps 750 mmHg 72%
    19:00 +19°C° 0 mm 1 mps 750 mmHg 76%
    20:00 +16°C° 0 mm 1 mps 750 mmHg 79%
    21:00 +14°C° 0 mm 1 mps 750 mmHg 83%
    22:00 +14°C° 0 mm 1 mps 749 mmHg 83%
    23:00 +13°C° 0 mm 1 mps 749 mmHg 84%

    Day after tomorrow, 3 June, Wednesday

    Time Temperature Precipitation Wind Pressure Humidity
    00:00 +13°C° 0 mm 1 mps 748 mmHg 85%
    01:00 +13°C° 0 mm 1 mps 748 mmHg 82%
    02:00 +12°C° 0 mm 1 mps 747 mmHg 80%
    03:00 +12°C° 0 mm 1 mps 746 mmHg 78%
    04:00 +12°C° 0.2 mm 1 mps 746 mmHg 81%
    05:00 +13°C° 0.2 mm 2 mps 746 mmHg 84%
    06:00 +13°C° 0.2 mm 2 mps 745 mmHg 87%
    07:00 +13°C° 1.1 mm 2 mps 745 mmHg 90%
    08:00 +13°C° 1.1 mm 2 mps 745 mmHg 93%
    09:00 +13°C° 1.1 mm 2 mps 745 mmHg 96%
    10:00 +12°C° 0.6 mm 3 mps 745 mmHg 95%
    11:00 +12°C° 0.6 mm 3 mps 745 mmHg 95%
    12:00 +12°C° 0.6 mm 4 mps 745 mmHg 94%
    13:00 +12°C° 0.1 mm 4 mps 745 mmHg 92%
    14:00 +12°C° 0.1 mm 5 mps 745 mmHg 90%
    15:00 +12°C° 0.1 mm 5 mps 744 mmHg 88%
    16:00 +12°C° 0 mm 5 mps 744 mmHg 87%
    17:00 +12°C° 0 mm 5 mps 744 mmHg 86%
    18:00 +12°C° 0 mm 5 mps 744 mmHg 84%
    19:00 +11°C° 0 mm 4 mps 744 mmHg 86%
    20:00 +11°C° 0 mm 4 mps 745 mmHg 88%
    21:00 +10°C° 0 mm 3 mps 745 mmHg 90%
    22:00 +10°C° 0 mm 3 mps 745 mmHg 90%
    23:00 +10°C° 0 mm 3 mps 745 mmHg 91%

    4 June, Thursday

    Time Temperature Precipitation Wind Pressure Humidity
    00:00 +10°C° 0 mm 4 mps 745 mmHg 92%
    01:00 +8°C° 0 mm 4 mps 744 mmHg 92%
    02:00 +8°C° 0 mm 4 mps 744 mmHg 92%
    03:00 +8°C° 0 mm 4 mps 744 mmHg 92%
    04:00 +8°C° 0 mm 4 mps 744 mmHg 90%
    05:00 +8°C° 0 mm 4 mps 743 mmHg 88%
    06:00 +8°C° 0 mm 4 mps 743 mmHg 86%
    07:00 +10°C° 0 mm 4 mps 743 mmHg 80%
    08:00 +11°C° 0 mm 4 mps 743 mmHg 74%
    09:00 +12°C° 0 mm 4 mps 743 mmHg 68%
    10:00 +12°C° 0.1 mm 4 mps 743 mmHg 69%
    11:00 +11°C° 0.1 mm 4 mps 742 mmHg 70%
    12:00 +11°C° 0.1 mm 4 mps 742 mmHg 70%
    13:00 +12°C° 0.1 mm 4 mps 742 mmHg 69%
    14:00 +13°C° 0.1 mm 4 mps 741 mmHg 68%
    15:00 +13°C° 0.1 mm 3 mps 741 mmHg 67%
    16:00 +13°C° 0.3 mm 4 mps 741 mmHg 72%
    17:00 +12°C° 0.3 mm 4 mps 741 mmHg 77%
    18:00 +12°C° 0.3 mm 4 mps 740 mmHg 82%
    19:00 +11°C° 0.4 mm 4 mps 740 mmHg 86%
    20:00 +10°C° 0.4 mm 4 mps 740 mmHg 89%
    21:00 +8°C° 0.4 mm 4 mps 740 mmHg 92%
    22:00 +8°C° 0.2 mm 3 mps 740 mmHg 93%
    23:00 +8°C° 0.2 mm 2 mps 740 mmHg 94%

    5 June, Friday

    Time Temperature Precipitation Wind Pressure Humidity
    00:00 +8°C° 0.2 mm 1 mps 740 mmHg 95%
    01:00 +7°C° 0 mm 1 mps 740 mmHg 94%
    02:00 +7°C° 0 mm 1 mps 740 mmHg 94%
    03:00 +6°C° 0 mm 1 mps 741 mmHg 94%
    04:00 +7°C° 0 mm 1 mps 741 mmHg 92%
    05:00 +7°C° 0 mm 1 mps 741 mmHg 91%
    06:00 +8°C° 0 mm 1 mps 741 mmHg 89%
    07:00 +9°C° 0 mm 2 mps 741 mmHg 82%
    08:00 +11°C° 0 mm 3 mps 741 mmHg 75%
    09:00 +12°C° 0 mm 3 mps 741 mmHg 68%
    10:00 +13°C° 0.1 mm 4 mps 741 mmHg 68%
    11:00 +14°C° 0.1 mm 5 mps 741 mmHg 68%
    12:00 +14°C° 0.1 mm 6 mps 741 mmHg 67%
    13:00 +14°C° 0.1 mm 6 mps 740 mmHg 66%
    14:00 +14°C° 0.1 mm 6 mps 740 mmHg 64%
    15:00 +12°C° 0.1 mm 7 mps 740 mmHg 62%
    16:00 +13°C° 0 mm 6 mps 739 mmHg 65%
    17:00 +13°C° 0 mm 6 mps 739 mmHg 68%
    18:00 +13°C° 0 mm 5 mps 739 mmHg 72%
    19:00 +12°C° 0.1 mm 4 mps 739 mmHg 79%
    20:00 +11°C° 0.1 mm 4 mps 739 mmHg 86%
    21:00 +10°C° 0.1 mm 3 mps 739 mmHg 93%
    22:00 +10°C° 0.1 mm 3 mps 739 mmHg 93%
    23:00 +10°C° 0.1 mm 4 mps 739 mmHg 93%

    6 June, Saturday

    Time Temperature Precipitation Wind Pressure Humidity
    00:00 +8°C° 0.1 mm 4 mps 738 mmHg 93%
    01:00 +8°C° 0 mm 4 mps 739 mmHg 94%
    02:00 +8°C° 0 mm 4 mps 739 mmHg 95%
    03:00 +8°C° 0 mm 3 mps 739 mmHg 95%
    04:00 +7°C° 0 mm 4 mps 739 mmHg 94%
    05:00 +8°C° 0 mm 4 mps 739 mmHg 93%
    06:00 +8°C° 0 mm 4 mps 740 mmHg 92%
    07:00 +9°C° 0.1 mm 5 mps 740 mmHg 85%
    08:00 +10°C° 0.1 mm 6 mps 740 mmHg 79%
    09:00 +11°C° 0.1 mm 7 mps 741 mmHg 72%
    10:00 +11°C° 0 mm 7 mps 741 mmHg 67%
    11:00 +13°C° 0 mm 6 mps 741 mmHg 62%
    12:00 +13°C° 0 mm 6 mps 741 mmHg 57%
    13:00 +12°C° 0.1 mm 7 mps 741 mmHg 57%
    14:00 +12°C° 0.1 mm 7 mps 741 mmHg 57%
    15:00 +12°C° 0.1 mm 7 mps 741 mmHg 57%
    16:00 +11°C° 0.2 mm 7 mps 741 mmHg 62%
    17:00 +10°C° 0.2 mm 6 mps 741 mmHg 67%
    18:00 +10°C° 0.2 mm 6 mps 742 mmHg 72%
    19:00 +8°C° 0 mm 5 mps 742 mmHg 74%
    20:00 +6°C° 0 mm 5 mps 742 mmHg 76%
    21:00 +5°C° 0 mm 4 mps 742 mmHg 79%
    22:00 +4°C° 0 mm 4 mps 743 mmHg 80%
    23:00 +3°C° 0 mm 4 mps 743 mmHg 82%
    Show more